Location: Unspecified
(42.2730°N, 83.7130°W)
Time: 13:57:01
(UTC+00:00)

Cosmos 2266 Rocket - Pass Details

Date: 14 December 2025
Orbit: 933 x 1007 km, 82.9° (Epoch: 17 January)

Event Time Altitude Azimuth Distance (km) Brightness Sun altitude
Rises 22:19:37 0° 355° (N) 3,640 6.8 -3.5°
Reaches altitude 10° 22:22:11 10° 359° (N) 2,680 6.1 -3.9°
Maximum altitude 22:28:14 63° 80° (E) 1,042 4.0 -4.9°
Drops below altitude 10° 22:34:11 10° 161° (SSE) 2,634 6.4 -5.9°
Sets 22:36:40 0° 165° (SSE) 3,572 7.1 -6.3°
